Theta_e
308 309 309 311 314 315 316 317 319 320 323 325 329 332 333 333 334 335 336 336 334 334
303 304 305 308 311 314 316 318 319 321 321 320 323 326 328 329 331 333 333 334 333 327
302 303 304 305 306 309 311 313 315 317 318 318 319 321 323 326 328 329 331 331 327 326
301 302 302 302 304 305 307 309 310 313 315 317 318 319 320 322 324 325 327 331 330 329
300 301 300 301 301 303 304 306 307 309 312 314 318 318 319 320 321 322 322 323 325 326
299 299 299 300 301 301 302 303 305 306 307 311 314 316 318 320 321 321 322 320 319 320
297 298 299 300 300 301 301 301 301 302 304 307 309 315 318 320 320 321 321 320 322 321
298 298 297 298 299 301 302 301 301 301 304 306 309 309 315 317 319 320 320 321 320 320
296 297 296 297 298 300 298 297 299 301 302 301 305 306 309 311 314 317 318 317 319 321
296 296 296 297 297 297 296 297 298 298 299 300 304 303 304 305 312 314 312 313 314 319
296 296 297 296 296 297 297 297 298 299 300 302 303 303 301 305 311 311 312 314 316 318
296 295 295 296 296 297 297 297 297 298 299 298 299 299 299 303 311 312 313 317 320 320
294 295 295 296 296 297 298 297 298 297 298 300 299 299 298 302 313 311 313 316 318 308
295 295 296 297 298 298 298 298 297 297 297 299 302 302 300 298 312 310 314 315 316 317
Wind_Speed
6 3 4 5 8 7 5 5 6 6 6 7 8 10 11 10 12 13 13 15 12 9
5 5 5 7 5 5 7 6 7 7 7 8 7 9 10 9 12 12 12 13 12 9
6 6 6 6 7 7 6 6 8 10 10 9 9 8 8 9 11 12 11 8 11 13
8 10 8 7 8 7 7 7 9 10 11 13 11 9 8 9 12 13 13 13 14 17
9 11 11 12 11 7 10 10 11 11 12 12 13 11 10 11 11 12 13 14 16 19
12 11 13 12 11 11 12 12 11 13 14 13 12 13 12 11 11 13 13 12 13 14
11 11 11 12 13 11 10 14 14 14 16 16 13 13 14 11 10 11 12 13 12 9
10 11 13 13 13 13 11 11 15 17 16 15 12 10 12 10 10 12 11 12 15 13
12 12 12 12 12 12 12 12 13 15 13 15 13 15 12 11 7 5 4 4 4 5
14 12 11 11 12 12 12 12 12 14 15 16 16 18 13 11 7 6 5 4 4 4
12 13 13 13 14 13 13 12 10 12 14 14 13 15 11 14 7 5 5 4 4 3
13 14 15 15 15 14 13 12 12 11 15 15 15 16 13 12 7 5 1 4 5 5
16 15 16 16 16 14 13 14 11 12 14 19 16 19 18 15 5 3 1 0 2 5
15 15 16 16 15 14 15 14 11 12 12 16 15 14 19 16 7 5 3 2 3 3
Wind_Direction
3 339 320 321 308 291 273 253 249 250 248 247 258 267 268 265 263 256 242 238 227 228
349 351 325 317 314 298 292 280 271 261 267 270 256 260 268 272 271 262 241 234 229 195
286 290 285 276 282 288 294 308 313 307 289 276 271 253 252 267 269 265 263 237 208 201
306 301 292 291 286 276 283 289 297 297 294 287 273 265 256 255 263 263 259 243 227 224
297 301 300 298 296 296 291 286 282 285 286 288 280 268 255 260 263 262 258 249 240 236
303 299 298 295 293 293 293 291 290 287 280 279 278 279 266 257 263 270 259 244 231 231
292 292 290 290 285 279 281 288 288 283 278 271 271 274 273 262 263 257 250 240 243 220
293 296 291 289 285 281 278 290 286 287 276 273 265 268 269 251 254 265 262 245 243 235
291 291 290 292 297 292 290 286 285 281 286 287 279 276 253 254 246 243 240 265 303 233
294 288 286 292 294 286 280 279 280 278 278 275 267 265 242 235 238 233 226 241 274 300
301 303 301 291 281 281 281 279 280 285 274 280 281 281 222 216 219 216 224 220 241 245
303 296 292 286 284 279 274 270 267 269 277 274 276 277 237 231 235 212 332 7 354 266
298 288 285 283 282 278 271 264 262 268 271 268 267 269 266 204 216 210 355 34 147 216
291 289 287 285 282 278 269 261 251 265 274 274 263 278 263 188 201 177 138 185 92 26